Regional Weather Roundup
Issued by NWS Charleston, WV

Home | Current Version | Previous Version | Graphics & Text | Print | Product List | Glossary On
Versions: 1 2 3 4 5 6 7 8 9 10 11 12 13 14 15 16 17 18 19 20 21 22 23 24 25 26 27
000
ASUS41 KRLX 250410
RWRRLX
West Virginia Regional Weather Roundup
National Weather Service Charleston WV
1200 AM EDT WED APR 25 2018

Note: "fair" indicates few or no clouds below 12,000 feet with no
significant weather and/or obstructions to visibility.

WVZ003-250500-
Northern Panhandle of West Virginia

CITY           SKY/WX    TMP DP  RH WIND       PRES   REMARKS
WHEELING       CLOUDY    51  48  89 E7        29.91F
$$

WVZ009-250500-
Northwest West Virginia

CITY           SKY/WX    TMP DP  RH WIND       PRES   REMARKS
PARKERSBURG    CLOUDY    52  51  97 CALM      29.90F
$$

WVZ006-250500-
Western West Virginia

CITY           SKY/WX    TMP DP  RH WIND       PRES   REMARKS
HUNTINGTON     CLOUDY    55  53  93 N5        29.86F
$$

WVZ015-250500-
West Central West Virginia

CITY           SKY/WX    TMP DP  RH WIND       PRES   REMARKS
CHARLESTON     CLOUDY    55  54  96 CALM      29.85F
$$

WVZ022-031-250500-
North Central West Virginia

CITY           SKY/WX    TMP DP  RH WIND       PRES   REMARKS
CLARKSBURG     FAIR      51  46  83 NE6       29.88F
MORGANTOWN     FAIR      53  46  77 SE12G17   29.91F
$$

WVZ025-035-042-045-250500-
Southern West Virginia

CITY           SKY/WX    TMP DP  RH WIND       PRES   REMARKS
BECKLEY        CLOUDY    52  49  89 E7        29.85F
LOGAN          FOG       54  54 100 CALM      29.85F VSB<1/4
BLUEFIELD      CLOUDY    50  48  93 NE3       29.86F
LEWISBURG      CLOUDY    51  49  91 NE6       29.88F
$$

WVZ047-250500-
Northern Mountains of West Virginia

CITY           SKY/WX    TMP DP  RH WIND       PRES   REMARKS
ELKINS         MOCLDY    51  45  79 CALM      29.90F
$$

WVZ052-250500-
Eastern Panhandle of West Virginia

CITY           SKY/WX    TMP DP  RH WIND       PRES   REMARKS
MARTINSBURG    LGT RAIN  52  51  97 N8        29.96F FOG
PETERSBURG     DRIZZLE   51  50  97 N3        29.95F
$$




USA.gov is the U.S. government's official web portal to all federal, state and local government web resources and services.